Retour au catalogue

STARLINK-31694

ActifCommunicationsVLEO
NORAD 60140·PAYLOAD·🇺🇸 United States

Lancé Jun 27, 2024 depuis Cape Canaveral Space Force Station

Loading…

Prochains Passages (prochaines 24 heures)

TLE

FraisSource: CelesTrak SupGP

Époque: Sep 14, 2026, 22:38 UTC

1 60140C 24120F   26257.94354167 -.00079511  00000+0 -23484-2 0  2575
2 60140  53.1567 157.8766 0001207  91.7267 278.6159 15.34441346    16

Suivez STARLINK-31694 en temps réel avec AllMySat

Download on the App Store